CZ-6A DEB, 64654

Orbit data source: Space-Track

CZ-6A DEB, 64654 is space debris in LEO originally from a launch on Tue, 06 Aug 2024 UTC launched from the Taiyaun Space Center, China (TSC). Debris objects in space refer to the collection of defunct objects orbiting the Earth. Examples of debris include non-operational satellites, rocket bodies, and fragments generated from explosions, collisions, or faulty payload assembly.

Loading next visibility...
Identifier
64654, 2024-140AEU
Orbit
LEO
Country
Flag of CNCN / PRC
Related business
Manufacturer
SAST
Mission
Spacecraft
Bus & Motor
Unknown
Mass
Unknown
Launch date (UTC)
2024-08-06 (1 year ago)
Launch vehicle
Unknown
Launch site
Taiyaun Space Center, China (TSC)
Object type
Payload
Rocket body
Debris
Shape & HBR
Unknown shape, 1.1 m
Radar Cross Section
Small (<0.1 m²)

Expand to show TLE details & history
Last TLE update: 1 day ago

TLE from 1 day ago
0 CZ-6A DEB
1 64654U 24140AEU 25350.20979808  .00002099  00000-0  10387-2 0  9995
2 64654  88.3203 256.8280 0081860  60.3207 300.6098 14.15203695 59313
Epoch: 2025-12-16T05:02Z
TLE epoch observation values (Epoch: 2025-12-16T05:02:06.554Z)
Latitude
0.00001°
Longitude
96.2034°
Altitude
814.923 km
Speed
7.461 km/s
True Right ascension
17h 07m 18s
True Declination
0° 00' 00"
Sunlit
Object was in daylight at epoch
Visualization orbit readout
Latitude
Unknown
Longitude
Unknown
Altitude
Unknown
Speed
Unknown
Apparent Right ascension
Unknown
Apparent Declination
Unknown
Sunlit
N/A
Visualization observer readout
Local Sidereal Time
09:25:26
Azimuth
Unknown
Elevation
Unknown
Doppler factor
Unknown
Orbital elements
Apogee altitude
897.658 km
Perigee altitude
779.506 km
Semi-major axis
7,216.719 km
Eccentricity
0.00819
Inclination
88.3203°
RAAN
256.828°
Arg. of periapsis
60.3207°
True anomaly
299.79827°
Mean anomaly
300.6098°
Eccentric anomaly
300.20445°
Mean motion
3.54025 °/min
Orbital period
101.69 mins
BSTAR
0.0010387
Loading maneuver chart data...
Computing Atmospheric mass density...

Documentation

Showing up to 5 results
|